Theta_e
312 312 313 312 313 311 312 312 312 312 311 310 310 310 310 310 308 308 307 306 306 304 303 302 302 301 300 301 300 300 300 300 302 302 303 303 303 303 303 303 302 301 302 301 302 301 300 299 299 299 299 297 297 297 297 297 297 297 297 297 296 296 296 294 292 292 295 298 298 298 299 300 299 301 300 301 302 303 306 305 306 306 307 308 310
310 311 312 311 310 310 310 310 310 311 310 309 309 309 308 307 308 306 305 305 304 304 303 302 301 300 299 299 298 298 299 299 300 301 302 302 302 304 303 301 301 300 300 299 300 301 299 298 298 298 298 297 296 296 296 296 296 295 295 296 295 295 297 295 293 292 291 295 296 298 298 300 297 300 299 299 300 302 302 303 305 305 306 307 307
310 310 310 310 309 309 309 309 309 309 308 308 307 307 306 306 307 305 305 305 305 303 302 301 300 299 298 298 297 297 297 298 298 299 300 300 301 301 302 301 300 299 299 299 299 299 298 298 297 298 298 296 296 296 296 296 296 295 294 295 295 295 296 295 294 292 292 293 295 295 296 298 297 298 300 300 301 301 300 301 302 303 305 306 307
311 310 309 309 309 309 308 308 308 307 306 306 305 305 306 306 306 304 304 303 302 302 301 300 299 298 297 296 296 295 296 296 296 297 298 299 299 301 301 300 300 299 299 299 299 298 297 297 297 297 296 295 295 295 295 295 294 294 294 295 295 295 295 295 295 294 293 292 294 295 297 297 298 299 300 301 300 300 300 301 302 302 303 304 305
310 310 309 309 308 307 307 307 307 306 305 305 305 305 304 304 305 304 303 303 302 301 301 299 298 297 296 295 295 295 294 295 295 295 297 298 299 300 300 300 299 299 299 299 302 298 298 296 296 296 296 294 294 294 294 293 294 294 293 294 294 295 295 296 295 295 294 293 294 296 297 297 299 299 300 298 299 299 300 300 300 301 301 302 303
310 309 309 308 307 307 306 306 305 304 304 304 304 304 305 304 303 304 303 302 301 300 299 299 298 296 295 295 294 294 294 294 293 294 295 296 298 299 300 300 299 299 299 299 298 299 297 296 296 296 295 294 293 293 293 292 293 293 293 294 295 295 295 295 296 295 295 294 294 295 296 296 297 297 298 299 298 297 297 299 299 300 299 299 301
309 308 308 307 306 306 306 305 305 305 304 304 304 304 304 303 303 303 304 302 301 300 299 298 298 296 295 294 294 293 293 293 292 293 294 295 296 298 299 298 299 299 299 298 298 298 297 297 297 296 295 294 293 293 292 292 293 292 294 294 295 294 294 295 295 295 295 294 295 295 295 297 297 295 297 298 297 297 295 295 295 297 298 298 298
308 307 306 306 306 305 304 304 304 304 304 304 303 303 303 303 303 304 303 301 301 300 299 298 298 297 295 294 294 294 293 292 292 292 293 294 295 296 298 299 298 297 298 298 298 297 297 297 297 297 296 295 295 294 293 292 293 292 293 294 294 294 294 294 294 294 294 294 294 293 294 294 294 296 296 296 294 294 295 294 292 293 295 297 297
307 306 306 305 304 304 304 304 304 304 304 303 303 303 303 302 302 302 303 302 301 299 299 298 297 296 295 294 293 293 292 293 293 293 292 293 294 295 296 298 298 297 297 297 296 296 296 297 297 298 301 301 300 298 297 296 294 292 293 293 294 293 293 294 294 294 294 293 293 294 293 293 293 293 293 293 292 292 295 295 294 294 295 294 296
306 305 304 303 303 303 303 303 303 303 303 302 302 302 302 302 302 301 301 301 299 299 297 297 295 294 294 293 293 293 292 293 294 294 294 293 293 294 296 298 297 296 297 296 295 296 296 296 300 302 301 300 299 296 295 295 296 295 294 293 293 293 293 293 293 294 293 292 292 292 291 291 292 293 293 294 295 295 294 294 293 294 294 293 294
305 303 302 302 302 302 302 302 302 302 302 301 301 302 301 302 301 301 301 301 299 298 297 295 294 293 292 292 291 292 292 293 293 292 292 294 294 293 295 297 297 296 296 295 294 296 295 295 294 299 300 299 298 296 294 294 293 294 294 296 297 295 293 292 293 294 293 292 292 292 292 291 292 294 294 294 295 295 294 294 293 293 292 290 289
303 302 302 302 302 302 301 301 301 301 301 301 301 301 301 300 300 300 300 300 300 298 296 295 294 293 292 291 291 292 292 294 291 292 292 292 295 295 295 297 298 296 295 295 295 295 294 294 294 296 296 297 296 293 294 294 293 293 293 294 295 295 294 293 293 293 293 292 292 292 292 292 293 294 294 294 294 294 294 294 293 292 291 290 290
302 301 301 301 301 300 300 299 299 299 300 300 300 300 299 299 299 299 299 300 299 299 297 296 294 293 292 291 290 291 290 293 292 292 292 292 293 296 297 297 298 295 295 296 294 294 294 294 293 295 295 299 299 292 291 291 294 294 294 295 296 296 293 292 293 295 294 293 292 292 293 293 293 294 295 295 296 294 294 292 292 292 292 291 291
301 300 300 300 299 299 299 298 298 299 299 299 299 299 299 298 298 299 299 299 298 298 298 296 294 293 292 291 290 290 290 293 292 292 292 292 293 295 297 298 297 295 296 296 295 293 293 292 291 292 291 293 293 292 291 290 290 290 292 293 294 296 295 294 294 294 295 294 293 292 294 295 294 295 297 297 295 293 293 291 292 291 291 291 293
299 299 299 299 298 298 298 298 298 299 299 299 299 299 299 298 299 299 298 297 297 297 297 296 295 294 292 292 291 290 292 292 291 291 291 292 293 295 295 297 296 296 295 295 294 293 293 294 292 291 291 291 294 293 291 290 289 290 291 292 293 293 293 294 294 294 295 295 294 294 295 296 296 296 296 297 296 296 295 293 293 293 293 294 294
298 298 297 297 297 298 298 298 298 298 299 299 299 298 298 298 298 298 298 296 296 296 296 297 295 293 293 292 291 289 290 292 291 292 291 291 294 295 293 294 293 294 294 295 294 293 292 292 291 291 292 291 295 292 292 292 289 289 290 291 292 293 293 296 295 295 295 294 294 295 295 296 295 295 296 296 296 296 296 295 294 293 291 290 289
297 297 297 297 297 298 298 298 298 298 298 298 297 297 297 297 297 298 296 296 295 294 294 294 295 294 293 292 291 289 289 291 291 292 291 291 293 293 292 292 292 292 293 294 294 294 294 293 292 292 292 291 294 291 291 293 289 289 289 290 291 292 292 294 295 294 294 294 293 293 293 293 293 294 294 294 295 295 294 291 289 290 288 287 288
296 296 296 297 298 298 299 298 298 298 297 297 297 297 297 297 297 298 296 295 294 293 293 293 293 293 293 293 292 290 288 292 292 291 291 292 293 291 291 290 290 291 292 293 295 293 295 302 302 294 292 293 293 292 291 292 289 289 288 289 290 290 291 292 293 294 294 294 294 294 293 293 294 294 295 295 294 295 293 288 289 289 287 288 286
296 296 297 297 298 298 298 298 297 297 297 296 297 296 296 297 298 298 297 296 295 294 295 293 293 292 292 295 299 292 290 292 292 291 291 291 292 291 291 289 289 289 290 291 293 293 293 297 299 297 295 294 292 291 291 292 289 289 288 288 289 289 290 291 290 291 292 293 293 294 294 295 296 296 297 295 295 296 295 293 292 289 286 287 287
297 297 297 297 297 298 298 298 297 297 296 296 296 296 297 297 296 297 296 296 296 295 295 294 293 293 294 295 296 293 290 290 291 292 291 291 292 292 291 288 289 289 289 292 292 291 292 292 295 293 292 292 291 291 291 291 290 290 289 288 289 289 291 290 292 293 292 292 292 293 293 294 295 295 296 296 296 297 295 294 293 291 288 287 287
297 297 297 297 298 298 298 298 297 297 297 297 297 297 296 296 296 296 295 295 295 295 295 295 295 294 293 294 294 292 293 290 291 291 291 292 291 291 289 289 288 289 288 290 290 290 291 291 291 294 292 291 291 291 291 291 291 291 290 289 290 291 291 289 292 294 291 292 292 292 292 293 294 295 295 295 295 295 295 294 294 293 290 288 286
297 297 297 297 298 298 298 298 298 299 298 298 296 296 296 297 297 296 296 295 295 295 294 294 294 294 294 294 292 292 297 297 290 291 291 291 291 291 290 289 289 289 289 288 289 290 290 290 291 293 291 291 290 291 291 291 291 293 291 290 290 290 291 293 291 291 291 291 290 291 291 291 292 293 295 295 295 295 294 294 293 293 292 291 289
297 297 297 298 298 298 298 298 299 300 299 298 296 296 296 297 296 296 296 295 295 295 295 294 293 293 293 293 291 290 290 293 294 291 291 291 291 290 290 289 290 291 288 289 288 290 290 290 292 294 291 290 290 290 291 291 292 291 290 290 290 290 292 291 291 290 290 290 290 289 290 291 291 293 294 294 294 295 294 294 293 293 292 292 292
298 298 298 298 298 298 299 299 299 298 298 298 297 296 296 296 296 297 295 294 293 294 294 295 293 292 293 292 293 291 290 289 292 292 291 290 290 290 290 290 290 290 290 290 289 289 290 290 291 290 290 291 290 290 290 291 291 290 290 291 291 291 290 290 290 290 289 289 289 288 289 290 291 292 293 294 294 294 294 294 293 293 292 291 291
297 297 297 297 297 298 298 298 298 297 297 297 297 296 296 296 295 295 295 294 294 293 292 294 293 292 290 291 290 291 291 290 289 291 292 291 290 290 290 290 291 291 291 291 290 291 291 290 290 290 290 291 290 290 291 291 291 290 291 291 294 290 289 289 289 289 288 288 288 288 289 290 291 293 295 295 295 295 294 293 293 293 292 291 291
297 297 297 297 298 299 298 298 298 298 298 297 297 296 297 296 295 294 294 293 292 292 291 291 291 292 290 289 288 288 289 287 287 287 292 292 291 290 290 290 292 292 292 291 291 290 290 290 290 291 291 291 292 289 289 291 290 290 291 293 289 289 288 288 289 288 288 288 288 288 289 290 291 293 294 295 294 293 293 292 291 291 290 289 289
297 297 297 298 298 298 297 297 296 297 297 297 297 298 296 295 294 293 291 291 292 291 292 292 291 290 289 289 288 288 287 286 286 285 285 286 286 288 289 290 292 291 290 290 290 289 290 291 290 290 290 291 290 290 290 290 289 290 288 290 288 288 289 288 289 288 288 288 288 288 289 290 291 292 292 293 293 293 293 292 291 290 290 289 288
297 297 297 297 297 297 297 294 296 296 296 297 296 294 293 293 292 291 291 292 290 291 292 290 290 290 289 288 288 287 286 285 285 285 285 286 286 286 287 288 287 286 287 288 288 289 290 290 290 290 289 289 289 288 287 288 287 287 289 288 288 288 291 292 291 288 288 288 288 289 289 289 289 290 291 292 293 293 293 292 291 290 289 288 287
297 297 297 296 297 297 297 297 296 294 292 292 292 293 293 292 290 289 289 290 293 294 293 292 291 290 289 288 287 288 286 285 286 289 286 289 287 286 287 286 287 286 290 289 289 289 288 288 287 287 286 285 286 286 287 286 286 287 288 289 288 287 288 287 287 287 288 287 287 287 287 288 288 290 291 291 292 293 293 292 291 290 289 288 286
296 296 296 296 296 296 297 296 296 294 292 291 291 290 289 291 291 290 289 289 290 291 290 290 292 291 290 289 288 286 285 287 290 289 289 289 289 289 289 289 289 288 289 289 288 285 284 283 283 285 286 284 284 284 285 284 284 285 286 287 287 286 287 286 287 287 287 287 287 287 287 287 288 289 289 290 291 292 293 291 291 290 288 287 286
295 295 295 296 295 296 296 295 295 294 292 291 291 290 290 289 288 289 289 289 288 288 288 287 286 290 292 290 290 290 290 290 289 289 289 289 289 289 289 289 289 289 289 287 283 282 282 283 283 284 283 284 283 284 285 283 284 284 285 285 285 285 285 286 286 286 286 286 286 286 287 287 287 288 288 289 289 291 292 291 291 290 289 288 286
295 295 296 295 295 295 296 295 295 294 293 292 290 290 289 289 289 288 286 286 285 284 284 284 284 285 289 291 292 289 289 289 289 289 289 289 289 289 289 289 289 289 289 289 284 284 283 282 283 283 283 284 284 285 284 283 284 283 284 284 284 284 284 285 286 286 285 285 285 286 286 286 286 287 288 288 288 290 290 290 290 289 289 288 287
296 296 296 296 296 295 295 295 295 294 293 291 291 289 288 288 287 287 289 287 285 283 282 283 283 282 282 283 288 290 290 289 289 289 289 289 289 289 289 289 289 290 290 285 282 284 284 284 284 284 284 283 284 284 285 284 284 283 284 284 284 284 285 285 284 285 285 285 285 285 286 286 286 286 287 287 288 288 289 289 289 289 289 288 287
297 297 296 296 296 296 296 295 294 294 293 292 291 289 289 288 287 287 287 288 289 289 288 287 285 284 283 284 285 285 285 287 288 288 289 289 289 289 289 287 289 290 291 285 283 284 284 283 284 285 285 284 285 284 285 284 284 283 283 285 284 284 285 284 284 284 284 284 284 285 285 285 286 286 286 286 287 288 288 288 289 288 288 288 287
299 294 291 293 296 296 296 295 294 293 293 292 291 290 290 290 289 288 288 287 287 286 287 289 288 287 288 288 288 287 287 288 288 289 289 289 289 289 289 287 286 286 287 288 288 286 287 286 286 286 286 285 284 284 284 285 284 284 283 284 283 284 284 284 283 284 284 284 284 285 285 285 285 285 286 286 286 286 287 288 288 288 287 287 288
299 297 297 296 296 296 297 296 294 293 293 292 292 291 291 291 290 289 288 288 288 288 287 288 287 289 289 289 289 289 289 289 289 289 289 289 289 289 285 285 285 285 285 286 286 288 287 287 287 287 286 286 285 284 284 283 285 284 283 283 283 283 284 283 284 284 284 283 284 284 285 285 285 285 285 286 286 286 286 287 287 288 287 287 287
297 297 297 297 298 297 297 297 296 295 292 292 293 293 293 292 291 291 290 289 289 289 289 288 289 290 289 287 290 289 289 289 289 289 289 289 289 287 285 285 286 286 286 287 287 288 287 287 287 286 287 286 286 285 285 285 284 285 286 284 283 284 283 283 284 283 283 283 283 284 284 284 284 284 284 284 285 286 286 286 286 287 287 287 287
298 297 297 297 298 298 298 297 296 291 293 295 294 294 294 293 292 291 290 290 290 289 289 289 290 288 288 289 294 290 289 290 290 289 289 289 286 285 286 286 286 286 287 287 286 288 287 287 287 287 287 287 287 286 285 284 283 284 284 283 282 283 287 284 284 283 283 283 284 283 283 284 284 283 284 284 284 285 285 286 285 285 286 287 286
298 293 291 291 294 298 297 295 293 294 293 293 292 292 291 291 292 291 292 291 289 289 289 290 290 289 290 288 288 291 289 286 285 286 287 286 286 286 286 287 287 287 287 287 288 286 287 288 287 287 287 287 287 286 285 285 284 284 284 283 282 282 283 283 284 283 283 283 283 284 283 283 283 283 283 283 284 284 285 285 285 285 284 286 286
297 294 291 290 293 293 293 293 292 293 291 294 293 292 290 289 290 290 290 289 289 288 288 290 290 291 292 289 288 288 288 287 286 287 286 286 286 287 287 287 288 287 287 287 286 287 286 286 286 286 287 286 286 286 285 285 286 284 283 283 283 282 282 282 283 283 282 283 283 283 283 283 283 283 283 283 283 284 284 284 285 285 284 284 285
296 295 291 290 291 292 293 292 292 293 292 292 290 291 291 290 291 289 289 289 288 287 288 288 290 292 291 291 291 289 290 288 288 287 286 286 285 286 287 287 287 286 286 286 285 286 286 286 285 285 285 285 285 285 285 285 284 284 283 282 282 283 282 282 282 282 282 283 283 283 283 283 283 283 283 283 285 284 283 284 285 284 285 284 284
296 294 293 291 292 292 293 292 292 292 292 291 291 291 290 289 291 289 288 288 287 287 288 289 289 288 290 291 291 290 291 289 288 286 286 285 286 286 286 287 289 287 287 287 286 287 286 286 285 285 285 284 284 283 284 283 283 284 284 282 282 282 282 283 282 281 280 283 283 283 283 283 283 283 283 285 283 283 283 283 283 284 284 284 284
295 294 293 292 293 292 293 293 292 293 291 292 291 290 290 291 292 290 289 287 287 287 287 288 288 287 287 289 290 289 289 288 287 286 285 285 286 286 287 287 287 287 288 288 287 286 286 285 285 286 284 284 285 285 285 286 284 284 284 283 282 281 281 282 282 282 280 281 282 283 283 283 283 283 283 283 282 283 282 283 283 283 283 283 283
295 293 293 293 293 293 293 294 293 291 291 290 291 291 290 291 291 290 290 290 288 286 286 287 286 287 286 286 286 286 288 287 288 286 287 287 286 287 288 289 289 288 288 288 288 288 286 286 286 285 286 286 286 287 285 284 285 284 285 285 284 282 281 281 282 282 281 282 282 283 283 283 283 283 284 283 282 282 282 282 282 283 283 283 283
296 294 293 293 294 294 293 292 293 292 290 290 290 291 290 291 290 289 289 289 288 287 286 286 286 286 286 287 285 287 287 288 288 287 287 287 288 288 289 289 289 289 288 287 287 288 287 287 286 286 285 286 284 286 286 286 286 286 285 285 284 283 282 281 282 282 281 282 283 283 282 283 282 283 283 283 283 282 282 282 282 283 283 283 283
295 293 292 293 293 292 292 293 290 292 291 291 291 292 291 291 291 290 288 289 288 288 287 287 287 286 287 287 287 287 287 288 288 288 289 288 288 289 288 289 288 289 289 288 288 290 287 287 287 286 286 286 286 286 286 286 286 286 287 287 287 286 284 284 282 282 281 281 282 283 283 282 282 283 284 283 283 283 282 282 282 283 282 282 283
295 294 292 293 293 292 292 293 291 291 292 292 291 292 290 291 290 289 288 288 288 287 289 288 287 287 287 288 288 288 289 289 289 289 290 290 290 290 289 288 287 289 287 287 288 288 288 287 288 287 287 288 286 287 287 286 286 285 286 287 286 284 284 284 284 284 283 283 283 282 283 283 282 282 283 283 283 283 283 283 282 282 282 283 282
295 294 293 293 293 293 292 291 290 289 290 290 291 291 290 290 290 290 289 289 289 288 287 288 287 288 287 288 288 289 289 290 290 290 290 289 290 290 290 290 289 289 289 288 288 287 288 287 287 288 288 287 287 287 287 288 288 287 286 288 286 285 285 283 284 285 283 283 283 283 282 283 282 281 282 282 281 282 282 283 283 283 283 283 283
295 294 293 293 293 292 291 291 291 290 291 290 289 290 289 290 291 290 290 290 290 289 290 289 288 288 288 288 288 288 288 287 289 290 290 290 290 290 290 290 289 288 287 287 287 288 288 288 288 288 288 288 287 287 287 287 288 288 288 287 286 284 283 283 284 285 284 285 283 282 282 282 282 282 282 281 283 281 282 282 281 283 283 283 283
294 294 294 293 292 293 292 292 292 292 292 291 290 290 289 290 289 289 290 289 289 290 290 290 289 290 289 289 288 289 290 288 288 288 289 289 290 289 291 290 290 288 288 287 288 288 288 288 289 288 288 288 288 288 287 287 287 288 288 288 285 283 283 283 283 283 284 283 284 283 283 282 282 281 281 282 282 282 282 283 283 283 282 282 283
293 293 294 294 294 293 293 293 292 293 293 292 291 290 290 289 290 289 289 290 289 288 288 289 290 290 290 290 290 290 290 290 291 290 290 291 291 291 290 290 289 289 288 288 287 287 288 288 288 288 288 288 288 288 287 288 287 288 287 286 285 283 283 283 285 282 282 282 282 284 283 283 282 282 282 283 283 282 284 284 284 282 282 282 281
Wind_Speed
8 8 7 7 6 6 6 6 7 6 6 5 5 5 6 6 5 5 6 6 6 6 7 7 7 7 8 7 7 6 7 7 6 6 5 5 5 5 6 6 8 7 7 7 7 8 9 9 9 9 8 9 8 8 8 9 8 7 7 7 7 6 7 9 10 12 11 8 9 11 13 11 11 11 14 13 13 13 14 14 15 13 13 11 12
8 7 6 7 8 7 6 5 7 6 7 7 8 8 7 6 6 7 7 6 7 7 7 6 7 8 8 8 7 7 7 7 7 7 8 6 5 4 5 7 7 6 5 6 7 7 8 10 9 9 9 9 9 8 8 9 9 9 9 8 8 8 8 9 10 10 14 12 10 10 11 11 12 10 11 14 14 14 15 14 13 14 14 13 12
6 5 5 6 6 6 6 6 7 8 8 7 7 8 7 7 6 6 6 6 7 8 8 8 7 7 8 8 7 7 7 7 7 8 8 8 6 5 5 6 6 5 6 6 7 8 9 9 9 8 7 8 8 7 8 9 8 9 10 8 8 9 9 10 10 11 13 13 13 14 14 13 12 13 13 10 11 13 15 14 14 13 13 15 13
6 5 6 8 7 7 7 7 8 8 7 6 7 6 6 6 6 7 7 8 8 8 8 8 8 8 8 8 8 8 8 8 8 7 8 7 8 5 6 6 5 6 6 7 8 9 8 8 7 7 7 7 8 8 9 9 9 9 9 8 9 10 10 10 10 9 11 13 12 13 13 14 12 12 12 11 11 12 12 13 13 13 14 13 14
8 7 7 8 7 8 8 7 7 7 7 6 6 7 7 7 6 6 6 7 6 8 8 7 8 8 9 8 8 8 8 8 8 8 7 7 6 6 4 5 5 5 7 8 8 8 8 7 6 5 6 8 8 9 10 11 9 8 8 9 10 9 7 7 8 8 10 11 10 9 9 9 10 11 12 13 13 12 11 12 13 13 14 13 12
8 8 6 7 8 9 8 7 7 7 7 7 7 6 7 6 7 6 8 9 9 8 8 7 8 8 8 8 7 7 7 6 7 6 7 7 7 7 5 4 4 5 6 8 8 7 6 6 5 6 7 8 8 8 9 10 9 9 9 9 8 7 8 8 9 9 10 10 11 11 9 11 11 10 11 13 15 15 14 13 12 12 14 15 13
8 7 7 8 9 8 8 7 6 6 6 6 6 6 6 6 7 7 7 8 9 8 7 8 7 8 8 7 7 6 6 6 6 6 6 7 6 6 6 4 4 4 6 7 7 6 5 5 5 6 7 7 8 8 9 9 8 7 7 7 8 8 8 8 8 8 10 12 11 10 11 10 11 13 13 15 14 13 15 16 16 13 13 14 16
7 7 8 8 8 8 7 6 7 7 7 7 7 7 6 6 5 5 7 8 8 8 8 8 7 7 7 7 6 5 6 7 7 6 6 5 5 5 4 2 4 4 6 6 5 5 4 4 5 6 5 6 7 7 6 7 7 7 6 6 7 8 8 9 9 8 9 11 11 13 11 12 11 12 12 14 14 13 12 14 17 18 17 14 14
8 9 8 8 8 7 7 6 6 6 7 7 8 7 7 6 6 7 7 8 8 9 8 8 7 7 6 6 6 6 7 7 5 5 6 6 4 4 4 3 4 4 5 6 5 5 4 4 5 5 8 10 11 9 8 7 5 6 7 7 7 8 8 8 9 8 9 10 11 11 12 13 12 11 12 12 13 13 14 14 16 16 17 17 16
9 9 8 8 8 8 8 7 8 8 7 7 6 6 6 6 7 7 8 9 9 9 9 8 7 7 7 7 7 7 7 5 6 6 4 2 3 3 3 3 3 3 5 5 4 4 6 6 6 12 8 7 9 12 13 12 10 7 6 6 6 6 7 8 9 8 8 10 11 12 12 11 12 14 16 15 13 14 13 13 16 17 15 17 16
10 9 9 8 8 8 8 8 7 7 7 8 8 8 8 7 7 7 7 7 9 9 9 9 7 7 7 6 6 6 5 4 7 7 8 8 4 3 3 2 3 4 4 5 4 6 6 5 4 6 5 5 5 11 13 14 13 14 14 12 9 6 6 7 8 7 8 9 9 10 11 13 15 16 14 13 11 12 12 13 13 14 15 15 17
10 10 9 8 9 9 8 8 8 8 8 8 8 7 7 7 6 6 7 7 7 8 9 8 7 6 6 6 5 4 4 7 10 11 11 10 7 3 3 3 3 5 4 5 5 6 5 4 4 2 3 4 4 5 9 13 14 14 15 14 12 11 7 4 6 8 8 8 8 9 10 9 11 10 12 13 14 14 13 13 12 13 15 15 15
10 10 9 9 9 8 8 9 9 9 9 8 7 7 7 6 7 7 6 5 6 8 8 9 8 6 6 5 4 4 4 8 10 11 11 12 12 7 4 3 3 4 6 5 5 5 4 5 3 3 3 7 4 4 5 7 11 13 13 14 12 12 11 11 8 6 6 8 10 10 9 11 10 9 11 16 14 15 14 13 13 14 13 15 16
9 9 9 9 9 10 10 10 10 9 9 8 8 8 7 7 6 6 6 6 6 6 8 8 7 7 5 5 4 4 4 8 12 13 14 14 14 9 6 5 5 5 5 5 5 5 4 4 4 4 4 4 3 4 5 6 7 7 8 8 7 9 11 11 12 12 9 6 8 10 13 12 13 15 15 15 15 16 15 15 15 14 13 15 17
9 8 10 10 10 10 10 10 10 9 8 8 8 8 8 7 7 6 6 6 6 6 8 7 6 6 5 4 4 4 5 10 13 14 15 15 14 10 7 7 7 8 6 3 4 4 3 3 2 3 6 6 4 5 5 6 6 7 7 8 8 8 8 8 7 7 7 7 7 9 11 12 13 15 15 14 15 15 14 15 17 16 15 15 15
10 10 11 10 10 10 11 10 9 7 8 8 8 7 6 7 7 6 6 6 4 5 6 6 5 5 4 4 4 5 5 11 12 14 15 14 12 7 7 7 7 6 7 4 2 1 2 2 2 5 7 6 8 11 8 6 5 6 8 8 8 8 8 9 11 10 9 9 8 9 10 13 15 15 15 15 13 12 12 12 12 12 12 13 13
11 11 11 10 10 10 9 9 8 9 8 8 8 8 8 8 7 6 7 6 6 5 5 5 5 5 4 5 5 4 4 8 12 13 13 12 8 6 6 6 6 7 5 5 3 1 1 1 1 7 6 6 12 14 12 9 6 7 7 8 8 8 9 8 10 14 15 15 15 14 16 17 17 17 18 19 15 14 12 12 12 11 14 14 15
11 11 10 10 9 9 9 9 10 9 8 8 8 7 7 7 7 7 8 7 6 6 5 5 4 4 5 5 5 5 4 6 9 10 11 12 8 5 5 6 6 6 7 6 5 2 2 6 9 6 6 7 14 17 15 8 7 7 7 8 9 9 10 8 7 10 15 15 14 15 16 16 17 16 17 18 18 15 12 13 13 11 11 10 15
10 10 9 9 9 9 9 9 9 9 8 7 7 7 7 7 7 8 8 7 7 7 6 6 4 4 4 6 8 6 4 4 6 8 8 8 7 4 6 6 7 7 7 7 6 3 4 6 12 11 7 11 17 17 18 11 7 8 7 7 8 10 10 9 10 11 10 9 9 11 12 14 12 11 12 17 16 15 11 12 11 10 11 12 13
9 9 9 9 9 9 8 9 8 8 8 7 7 7 6 7 7 8 7 7 7 6 6 6 5 4 4 5 5 5 4 3 3 7 7 7 7 4 4 6 6 6 6 5 6 6 6 6 8 11 13 15 17 18 17 16 9 8 6 6 8 10 9 9 11 10 11 11 11 11 12 12 11 11 10 11 12 12 13 12 12 11 11 12 11
10 9 9 9 9 9 9 9 9 7 7 7 7 6 5 5 5 6 7 7 7 7 6 6 6 4 3 4 5 4 4 3 2 7 7 7 6 5 3 4 3 4 4 5 5 4 6 7 7 11 14 15 17 18 17 16 14 8 6 6 6 10 10 6 11 13 10 11 11 10 11 11 11 11 11 12 12 13 13 13 13 12 11 11 11
10 9 10 10 10 10 9 8 8 7 6 6 7 7 6 7 7 7 8 7 7 6 5 4 5 5 4 4 4 4 4 5 2 6 8 8 8 6 5 2 1 1 4 4 4 4 6 6 7 11 16 16 16 16 16 14 15 6 9 13 15 16 9 6 8 9 10 10 10 11 11 12 13 13 13 13 12 13 13 13 13 13 12 11 10
10 10 10 10 10 10 9 9 8 6 6 6 7 7 6 7 6 6 6 6 7 6 5 4 4 4 5 5 4 4 4 2 4 5 8 9 9 9 6 3 6 2 3 4 4 6 6 7 8 13 15 15 15 15 14 14 11 8 15 15 13 15 9 7 9 9 10 11 11 11 12 12 13 13 13 14 14 14 13 13 13 13 14 13 13
10 10 10 10 10 9 8 8 7 6 7 7 6 6 7 7 7 7 6 5 6 7 7 6 4 5 6 4 3 3 3 4 5 9 7 9 9 10 9 9 8 5 4 4 4 6 7 8 10 15 14 14 13 12 12 13 10 12 15 15 12 13 7 8 9 10 10 11 11 12 12 12 12 12 12 12 13 13 13 12 11 13 13 13 14
11 10 10 10 9 8 7 7 7 7 6 6 6 7 7 6 6 4 5 5 5 5 4 5 7 7 6 6 4 3 2 2 4 6 9 8 8 9 10 10 10 9 7 5 4 6 10 14 16 15 14 14 12 10 9 11 14 11 14 14 9 7 7 8 9 10 11 11 11 12 13 13 12 11 10 12 13 13 14 14 14 12 12 12 11
11 11 11 10 9 9 8 7 7 7 7 6 6 6 6 6 7 7 6 6 6 6 6 6 6 7 7 6 6 5 4 4 4 3 3 4 5 7 8 8 9 9 7 6 9 13 14 14 15 13 12 10 6 5 6 8 12 12 12 13 5 7 7 7 9 10 10 11 11 12 12 12 13 11 10 11 12 13 13 14 15 15 16 16 14
12 11 11 10 8 8 9 7 7 7 6 6 6 6 5 4 4 4 4 6 6 7 7 6 6 6 7 7 5 5 4 4 3 2 2 3 4 4 6 6 7 7 7 6 8 9 12 11 10 11 9 9 8 7 7 9 8 7 7 7 7 7 7 7 9 9 10 10 11 11 11 12 11 11 11 12 13 13 13 13 14 14 14 13 11
12 12 11 9 8 8 8 10 9 7 7 7 7 5 6 6 7 5 5 6 7 6 6 5 6 7 7 7 6 4 3 2 2 1 2 3 3 3 3 3 4 4 6 6 7 7 7 9 9 7 5 6 7 7 7 7 6 6 7 7 7 6 9 9 10 9 9 9 10 10 11 12 12 12 11 11 12 12 12 12 12 14 14 13 13
12 12 10 8 8 8 8 8 6 6 5 6 5 5 8 8 7 5 2 1 6 8 7 6 4 4 7 7 7 4 3 2 1 5 2 3 2 3 5 5 5 6 4 5 7 6 5 7 7 7 6 5 7 7 7 7 7 7 7 8 7 7 8 7 8 10 10 10 11 11 11 12 12 12 11 11 12 13 13 12 13 13 13 11 12
12 11 9 8 8 8 7 6 7 7 7 8 8 7 9 8 7 8 4 3 6 7 8 4 6 7 6 2 3 5 4 3 5 6 6 5 5 6 7 8 6 6 8 9 4 4 4 4 6 4 6 6 7 7 7 7 7 8 8 8 7 7 8 8 8 9 10 10 10 10 11 11 12 13 12 12 11 12 13 13 13 13 13 14 14
10 10 9 8 9 9 8 7 7 7 7 8 8 8 6 8 12 12 8 5 8 10 11 9 5 5 7 3 1 8 8 6 7 7 6 6 7 7 7 7 7 5 6 7 3 2 3 5 5 5 4 4 5 7 6 6 7 7 8 7 6 7 7 7 8 8 10 10 10 10 10 11 11 12 12 12 11 11 12 11 11 12 13 13 13
11 9 9 9 11 10 8 8 8 8 7 7 8 7 7 7 5 7 7 5 5 6 7 6 5 5 5 6 6 0 2 5 7 7 7 7 8 8 8 9 10 7 6 4 2 6 3 3 3 4 4 5 5 6 6 6 6 7 7 8 7 7 7 7 8 8 9 10 10 11 11 11 11 12 12 11 11 11 11 12 12 13 13 12 13
11 9 10 11 11 11 9 8 9 8 8 7 7 7 8 7 7 3 1 3 3 3 2 2 2 2 2 1 2 4 7 7 7 7 8 9 8 6 8 10 9 10 1 3 2 5 4 3 3 3 3 4 5 5 6 5 5 6 6 7 7 7 7 6 6 8 8 9 9 10 10 10 10 11 11 11 10 11 11 11 11 11 12 13 13
11 10 11 12 11 9 8 9 10 9 8 8 7 7 7 8 8 7 6 2 0 2 2 4 4 3 3 4 4 5 6 7 8 9 9 9 6 6 7 7 12 6 1 2 2 2 2 3 3 3 3 3 4 4 5 5 6 5 6 6 6 7 7 6 7 8 7 8 8 9 10 10 10 10 11 11 9 9 10 10 11 11 12 12 12
9 11 16 13 9 9 8 9 9 9 8 8 7 7 7 7 7 8 8 8 7 6 6 6 6 7 7 5 7 7 8 9 9 9 9 7 5 7 7 6 7 6 6 3 4 2 2 1 1 2 1 3 3 4 4 4 6 7 5 6 6 7 7 7 7 7 7 8 8 9 9 10 10 10 10 10 11 10 10 10 10 10 10 11 11
10 10 11 12 9 7 8 9 8 8 9 8 8 8 8 8 7 7 6 6 7 7 5 6 6 7 9 8 8 8 10 10 10 9 9 5 3 5 4 6 6 5 4 6 5 0 0 0 0 1 0 2 2 3 2 2 4 4 4 5 5 6 7 7 7 7 7 7 7 9 9 10 9 9 10 11 12 10 9 9 9 9 9 9 9
9 10 9 8 8 6 7 9 9 10 10 10 8 7 8 8 8 7 6 7 7 6 7 5 3 3 3 5 8 10 12 10 8 8 9 8 4 1 4 6 6 6 6 7 6 0 0 0 0 1 1 1 1 1 2 1 3 4 4 3 3 5 5 6 7 6 7 7 7 8 8 9 9 9 9 10 11 11 10 9 9 9 9 11 9
10 10 9 9 7 8 8 7 8 11 11 9 8 9 9 9 9 9 8 8 8 7 6 6 6 7 7 9 8 7 8 5 5 7 7 7 4 5 7 7 6 6 7 7 6 2 1 1 1 1 1 1 2 2 2 2 3 3 3 2 2 3 4 6 6 7 7 7 8 8 7 8 8 8 9 9 10 10 11 11 9 9 9 10 9
8 9 12 11 6 7 8 7 6 8 7 8 8 10 11 10 9 8 8 8 7 7 7 7 7 7 9 7 5 6 3 2 4 7 7 6 6 6 6 6 6 6 7 8 5 3 3 2 1 2 1 1 1 2 2 3 3 4 2 1 3 3 5 6 6 6 7 7 8 7 7 7 7 8 7 8 10 10 10 11 10 9 8 8 8
7 6 9 10 5 7 10 8 7 7 8 7 6 8 9 9 9 9 8 8 9 9 9 8 8 8 9 5 5 5 7 8 7 7 7 7 7 6 6 7 7 8 8 5 4 3 4 3 3 2 2 1 0 2 3 3 4 4 2 0 0 2 3 4 5 6 6 6 7 7 7 7 7 7 7 8 8 8 9 10 9 9 8 7 7
9 9 8 8 7 6 8 7 7 8 8 7 8 7 8 8 8 7 6 7 7 7 7 8 9 10 8 10 13 13 9 9 8 7 8 9 8 6 6 7 8 6 5 4 5 4 5 4 4 3 2 2 2 2 3 3 3 4 5 2 1 0 1 3 3 4 5 5 6 7 7 7 7 7 8 8 8 8 8 8 9 8 8 7 6
8 8 8 7 5 7 8 8 7 8 7 6 6 6 6 6 7 6 6 5 6 7 8 7 7 7 10 17 16 17 10 8 7 8 8 8 5 6 5 5 6 7 5 5 5 5 4 4 4 4 3 3 2 2 2 3 4 4 4 3 2 1 0 2 2 3 3 4 5 6 6 6 6 7 7 6 7 7 8 8 8 8 8 8 7
10 9 9 7 6 7 8 8 7 7 7 7 5 5 5 6 6 6 6 6 7 6 6 7 7 4 5 10 15 16 9 8 7 8 6 6 6 5 6 6 7 7 6 7 6 7 6 6 6 5 5 4 5 3 3 4 4 4 4 4 3 3 1 1 1 2 2 3 4 5 5 6 6 7 7 7 7 7 7 7 8 8 8 7 7
9 8 8 7 6 4 6 7 7 7 7 8 8 7 5 5 7 7 8 8 7 6 6 6 5 4 4 3 4 7 8 8 6 6 7 6 6 6 8 8 7 7 7 5 6 6 6 6 6 6 6 5 5 4 4 4 3 3 4 5 3 4 4 2 1 1 1 1 2 4 5 6 6 6 7 7 6 7 7 7 8 8 8 8 8
8 8 7 7 7 5 5 7 8 8 8 8 7 7 7 7 6 7 7 6 6 6 5 6 5 5 5 5 7 7 7 7 8 6 7 7 7 7 7 7 7 8 6 6 5 5 5 6 6 6 5 6 5 5 5 4 4 4 4 3 4 4 6 5 4 3 4 1 0 2 3 4 6 6 6 7 6 6 7 6 6 7 8 8 8
9 7 7 7 7 6 4 4 6 8 7 7 8 8 8 7 7 6 6 6 7 7 7 7 7 6 7 7 7 8 8 7 7 7 8 7 8 8 7 8 8 8 7 7 7 7 7 7 7 7 7 7 7 7 6 5 5 5 4 4 4 6 7 6 4 3 4 2 1 0 0 2 4 4 6 6 7 6 6 7 6 6 6 7 8
9 9 8 8 7 6 6 4 4 5 6 7 7 7 7 7 6 5 4 5 6 6 7 7 8 8 7 7 8 8 9 9 8 8 8 8 8 9 9 8 7 7 7 7 6 7 7 7 7 7 7 7 7 7 7 7 7 7 7 5 4 5 5 6 5 4 5 4 3 2 0 0 3 4 5 5 5 6 6 6 5 6 7 7 7
7 8 7 7 7 7 6 6 5 6 5 6 7 7 7 7 6 6 6 7 7 6 6 6 7 8 8 7 8 8 8 8 9 9 8 8 8 9 8 7 7 8 7 6 6 7 8 8 7 7 8 7 7 7 7 8 8 7 7 7 6 6 8 8 5 5 4 4 4 3 2 1 1 3 4 4 4 4 6 7 7 6 6 7 7
9 8 8 8 7 8 8 7 6 5 6 5 6 7 7 7 8 8 8 7 7 7 8 8 8 8 8 8 8 8 8 8 9 9 9 9 9 9 8 8 6 7 6 7 7 7 7 7 7 8 8 7 7 7 7 7 8 7 7 7 8 11 12 11 7 7 7 6 5 4 3 2 1 2 3 4 5 4 4 4 4 5 6 6 7
7 9 9 8 8 8 8 7 7 6 6 6 7 7 7 7 8 8 8 8 8 8 8 8 8 8 7 7 6 8 6 7 8 8 8 7 8 8 8 8 8 6 6 7 8 8 8 7 7 7 7 7 8 8 8 8 8 8 7 7 10 12 11 13 12 11 8 6 6 6 5 4 3 3 3 4 4 4 5 5 5 6 4 4 5
4 7 10 10 9 9 8 8 8 8 8 8 8 8 8 8 8 8 8 8 7 8 8 8 8 8 8 8 8 8 8 8 8 8 9 8 8 8 9 8 6 5 5 5 6 6 6 6 7 7 8 8 8 8 8 8 7 8 10 12 12 12 13 12 9 11 12 8 6 6 5 6 4 4 4 5 4 4 6 6 6 5 5 4 4
Wind_Direction
105 111 121 121 118 112 113 119 125 133 127 118 116 108 95 82 79 80 71 67 73 72 73 67 61 57 52 46 41 34 26 18 12 17 22 36 38 37 35 40 47 48 52 50 53 59 59 55 48 40 34 32 20 18 16 9 6 5 358 354 348 346 347 339 327 318 316 325 317 320 321 321 322 327 320 320 320 320 317 312 310 310 311 312 311
112 115 117 123 123 129 131 123 122 115 106 102 93 90 87 83 82 75 76 73 72 69 70 68 65 59 55 46 39 32 24 20 15 14 19 10 28 30 41 45 52 52 47 48 52 59 60 58 48 42 35 29 18 15 9 5 1 358 357 352 347 348 350 344 337 327 322 327 325 320 318 327 316 321 321 323 320 319 318 319 318 319 317 313 309
121 122 121 114 114 117 113 106 104 105 103 98 100 100 96 92 85 85 83 78 71 74 71 68 63 62 61 52 42 33 22 19 15 18 15 14 4 27 36 52 54 49 44 48 58 60 57 54 51 44 28 24 18 10 6 2 356 355 352 350 350 350 351 352 340 333 328 325 326 327 328 325 320 320 320 314 313 318 321 322 320 316 313 311 309
132 124 117 114 111 102 99 100 97 97 97 97 98 98 99 100 100 96 97 93 87 77 75 69 65 61 57 52 45 36 26 19 18 16 15 8 6 0 48 51 49 46 47 55 61 62 60 55 48 42 28 26 17 11 5 1 0 358 353 351 356 357 353 346 339 328 329 326 331 327 326 324 321 316 313 311 315 319 318 312 310 311 312 313 318
128 124 117 113 105 102 100 95 95 96 100 99 98 96 94 93 88 87 81 84 84 86 78 71 68 61 55 50 45 39 31 23 20 14 10 5 6 358 38 58 48 49 58 63 66 69 61 56 48 43 32 31 19 17 4 5 4 360 357 359 359 354 337 319 322 322 327 326 311 304 311 308 308 309 314 319 319 317 315 313 314 313 313 312 309
130 132 129 117 113 110 106 103 104 106 105 102 103 102 102 97 95 92 96 94 91 87 85 78 73 68 60 54 49 44 36 30 25 14 6 3 2 5 6 55 46 56 65 68 67 64 63 51 48 53 44 36 23 15 7 4 3 2 360 358 344 322 321 321 320 316 316 312 305 310 314 316 316 314 318 325 326 323 322 320 318 318 316 313 310
138 135 126 122 116 114 115 115 113 109 105 103 100 96 98 106 108 108 103 100 100 97 91 87 77 72 64 55 50 43 36 32 25 12 7 5 2 1 357 33 51 55 69 75 71 64 60 52 53 61 53 37 25 17 7 2 1 356 346 333 326 324 320 318 308 308 321 326 326 323 324 327 325 326 333 332 325 324 324 324 320 319 313 315 314
140 126 126 122 120 120 120 118 113 109 105 100 96 95 91 88 94 104 110 107 102 99 93 85 80 74 65 60 50 46 40 33 22 11 3 360 356 349 356 354 65 62 77 81 77 69 54 52 60 62 61 33 23 12 17 1 354 344 332 329 327 329 328 325 325 308 324 334 338 337 336 330 331 329 327 327 324 323 324 320 315 316 314 309 308
137 130 126 125 125 124 119 115 111 106 107 106 103 101 96 90 86 85 92 100 99 95 88 81 78 73 66 58 50 42 41 29 20 1 348 353 353 340 342 336 73 69 82 85 78 69 51 48 65 62 41 28 12 4 6 8 359 339 330 332 337 339 336 334 333 325 334 339 334 331 326 328 327 324 326 329 325 319 317 312 306 306 306 304 299
135 131 129 129 128 124 119 115 112 112 109 106 106 101 97 93 87 86 91 99 100 97 92 87 79 72 62 48 43 40 33 24 6 355 356 333 327 330 342 341 70 71 92 91 72 61 52 53 41 49 50 21 4 358 354 355 352 344 325 320 321 330 336 337 335 333 333 334 332 325 323 319 321 324 321 315 310 309 307 308 306 309 304 299 294
133 134 134 136 133 127 125 124 120 114 107 103 102 99 97 94 88 86 89 99 106 106 101 95 87 77 69 57 46 42 31 9 358 17 20 13 4 350 351 330 54 46 87 103 86 63 62 59 48 31 30 357 350 356 348 348 345 342 336 324 314 321 334 334 331 323 324 322 314 317 315 313 314 316 312 310 305 310 310 307 303 305 305 305 302
136 138 142 139 133 131 128 122 116 113 109 108 106 103 98 96 95 93 93 97 108 110 106 103 95 84 75 65 54 37 27 6 16 18 17 15 11 353 341 350 44 34 60 93 80 75 72 57 36 23 351 356 348 358 345 340 338 335 333 328 322 323 332 318 316 321 324 321 310 305 303 298 299 304 310 310 315 311 310 308 305 300 299 295 291
144 144 144 138 130 123 117 115 114 113 116 116 113 108 106 103 101 97 96 100 96 109 118 105 98 92 81 73 60 37 34 12 23 24 20 17 12 10 348 331 42 48 61 83 92 88 83 62 33 353 330 342 347 353 345 334 331 328 324 325 321 320 325 317 292 279 298 309 314 306 307 310 306 297 298 310 309 307 312 311 309 301 294 288 286
147 144 134 124 122 120 117 117 118 123 126 124 121 121 120 119 114 108 101 89 87 94 109 111 108 102 98 87 67 48 35 15 28 26 24 20 15 19 7 5 21 24 63 108 108 103 95 84 44 359 346 350 337 357 338 332 325 322 320 316 312 309 310 303 301 302 303 299 302 307 311 316 315 315 313 314 313 314 315 311 310 300 293 287 289
145 132 124 124 123 124 125 126 133 140 137 134 134 135 135 130 123 123 115 109 100 95 107 119 117 115 110 93 69 47 27 25 32 29 26 22 16 23 21 28 31 33 23 62 104 119 119 113 84 12 7 351 337 4 345 328 321 314 312 310 306 304 297 295 299 306 309 302 295 291 300 310 311 311 313 312 309 308 307 306 304 297 287 281 274
131 127 126 129 131 134 138 143 147 144 137 135 133 130 127 123 122 119 110 104 95 82 83 108 124 125 120 102 80 50 26 26 34 33 30 24 22 26 25 28 28 28 27 14 12 110 135 101 49 18 5 342 339 351 352 330 318 313 310 304 305 302 298 288 288 297 300 296 291 290 297 303 304 306 309 310 308 308 306 303 296 294 296 296 290
132 131 133 137 142 149 150 146 139 133 131 126 123 122 121 121 120 115 110 111 104 97 103 106 126 134 130 113 94 67 42 26 34 32 30 29 30 26 27 25 22 20 19 12 350 312 175 163 8 20 353 337 335 340 346 344 322 316 307 304 302 306 303 304 311 313 309 304 295 293 301 306 307 307 310 310 310 313 315 312 316 315 307 302 297
137 138 144 148 150 146 140 135 132 130 129 129 130 133 133 132 131 128 126 127 124 130 122 112 112 127 139 135 117 93 59 34 42 32 28 25 31 36 29 33 21 18 6 8 3 316 316 347 357 6 349 331 332 336 339 345 325 315 312 309 312 313 307 312 324 316 309 299 300 310 312 311 314 316 319 322 318 317 320 317 310 307 300 294 299
145 146 148 146 142 137 133 129 128 128 130 132 133 135 140 145 143 138 142 141 145 145 138 131 136 130 123 125 126 105 83 51 47 43 32 26 28 23 32 30 29 11 3 355 355 349 315 329 345 340 343 328 332 333 333 338 326 318 311 310 310 312 307 324 321 315 311 312 312 318 322 324 324 322 324 323 319 321 322 313 313 311 305 301 299
145 142 141 137 134 130 128 126 126 128 132 132 133 141 147 142 144 143 143 144 149 151 150 150 151 164 156 120 126 122 101 61 46 59 40 30 30 31 27 42 23 5 353 349 344 341 350 337 326 324 331 331 330 330 329 330 330 318 318 315 313 312 318 326 312 312 316 318 312 318 319 321 322 324 329 331 328 327 327 323 320 314 306 302 296
138 139 135 131 128 125 125 128 132 136 139 143 145 141 135 134 130 127 138 143 144 150 154 160 157 167 153 122 122 133 137 122 67 62 46 43 42 41 26 35 23 3 344 335 332 328 333 328 317 320 329 332 329 327 327 328 330 326 321 319 314 308 319 319 317 320 323 322 320 319 320 324 330 334 336 337 336 335 333 328 321 316 312 307 301
135 134 132 128 126 125 128 130 132 137 138 130 126 128 131 127 129 135 142 147 148 149 150 151 150 153 142 119 113 121 147 145 119 60 55 48 50 40 30 8 47 337 348 336 321 335 330 321 322 319 328 330 325 322 325 331 334 333 327 346 346 345 342 315 320 329 332 332 328 327 327 333 338 341 341 339 338 335 331 327 324 322 318 309 300
133 131 128 126 126 128 130 133 134 135 133 135 133 135 131 125 130 135 145 145 146 154 165 160 148 131 125 127 125 124 110 98 119 74 52 47 30 34 33 5 356 35 20 336 311 325 326 325 317 323 325 323 320 321 321 343 353 328 334 357 343 351 346 339 340 341 338 333 332 332 335 337 339 339 340 342 338 333 331 326 323 326 326 319 314
130 129 127 127 128 130 133 133 134 131 136 137 134 134 138 146 154 161 158 145 144 154 164 151 128 126 140 142 150 149 134 111 76 65 47 33 25 16 9 5 12 9 9 339 318 332 330 326 319 322 327 323 319 315 331 347 343 337 351 357 347 356 351 344 348 344 337 336 337 337 337 335 335 335 336 333 331 332 328 326 328 329 333 327 322
130 131 131 132 133 136 134 137 138 138 142 140 140 144 149 151 154 169 149 147 143 144 159 142 139 141 134 145 156 156 168 115 61 52 47 25 17 5 1 1 356 10 2 337 338 330 321 323 327 330 328 320 314 307 334 333 340 340 346 355 352 357 353 349 349 345 345 343 338 338 338 337 332 326 324 329 330 335 341 339 336 334 334 332 321
134 135 136 137 141 143 140 144 146 151 154 153 159 164 161 165 160 165 153 153 151 142 137 129 131 132 135 134 128 128 100 76 58 29 26 17 2 354 354 352 349 352 351 327 327 329 330 328 324 328 329 319 319 332 335 332 334 340 341 354 351 351 352 351 351 349 346 340 338 338 333 331 332 326 327 334 343 347 345 344 341 345 344 340 341
137 138 141 145 148 147 147 148 152 154 152 159 162 167 152 125 102 89 107 126 124 127 130 126 116 114 134 133 128 114 100 84 61 11 349 359 348 348 349 342 348 348 348 341 341 335 323 322 310 307 296 298 337 337 336 336 346 346 341 349 352 348 350 352 351 347 345 341 336 334 332 333 327 331 341 345 348 347 353 348 346 344 343 341 339
143 145 147 150 150 152 150 156 155 158 164 161 164 113 84 107 98 97 111 126 123 108 99 97 117 126 119 126 122 113 105 90 61 20 316 325 324 334 332 332 331 338 330 328 324 318 313 312 322 336 343 5 352 350 349 346 348 350 347 349 356 347 347 343 347 350 346 341 333 332 333 338 339 338 339 344 349 348 352 352 351 345 347 341 354
143 147 151 150 154 155 153 160 151 121 96 78 72 116 134 115 109 92 38 100 127 127 115 111 110 125 125 130 126 120 117 126 230 216 227 237 267 300 325 317 317 315 302 314 317 320 334 337 343 341 0 1 1 350 344 351 349 351 350 354 359 352 350 354 355 350 344 342 341 337 338 340 340 341 343 344 348 350 352 353 355 352 348 352 3
148 155 157 154 153 150 156 150 122 123 114 112 101 63 36 78 119 129 116 60 93 125 128 136 149 125 99 118 155 147 170 202 205 197 235 253 256 249 254 267 271 278 297 305 260 273 304 333 314 334 351 5 0 352 344 347 350 352 349 352 357 355 355 351 349 348 343 342 338 339 341 343 343 344 344 346 344 351 353 356 355 356 358 1 3
154 158 154 154 153 151 157 134 133 124 127 122 113 109 101 48 47 60 78 89 93 92 97 115 114 116 130 123 125 145 153 169 191 221 239 259 270 279 287 292 296 296 297 335 0 15 325 328 311 347 348 3 4 347 346 351 351 354 349 350 351 352 351 353 344 343 346 344 343 342 341 347 345 344 344 343 344 347 353 354 357 4 7 2 5
159 161 154 152 151 155 161 142 139 133 134 130 124 126 114 101 61 39 58 69 55 82 103 115 119 121 132 147 149 16 211 218 224 236 250 271 281 290 313 313 308 315 295 200 269 296 308 286 319 352 354 13 347 351 356 355 350 356 350 353 347 348 354 353 335 344 346 347 345 343 345 345 345 344 344 343 344 346 355 358 1 3 5 8 10
160 159 155 154 157 164 162 141 147 141 138 131 134 132 129 136 137 146 45 66 101 116 104 125 155 156 168 182 194 174 195 216 229 247 259 270 284 319 320 306 302 313 275 141 199 273 311 325 345 349 14 12 355 360 356 354 357 352 354 349 345 341 346 344 331 349 347 346 344 344 343 343 344 345 345 345 350 350 353 1 1 2 7 9 8
164 160 157 158 162 166 161 149 150 149 144 147 150 148 150 150 158 154 149 131 24 319 292 218 208 220 229 213 206 231 252 253 254 256 265 273 308 345 335 311 311 303 209 222 167 257 320 348 337 5 349 13 6 3 5 354 357 354 346 349 342 338 343 348 358 352 345 343 346 342 345 344 346 348 347 346 346 350 356 359 3 6 9 11 8
158 156 155 159 166 163 155 150 148 146 147 151 153 152 153 154 155 156 164 168 180 190 207 239 236 206 220 224 235 235 246 253 256 262 270 291 347 339 332 344 349 346 357 324 241 234 13 280 333 349 15 28 359 14 3 345 357 354 341 342 346 345 349 353 351 348 349 343 346 348 343 345 346 345 347 348 349 354 357 358 1 7 7 7 11
153 155 160 162 159 156 157 149 150 150 156 161 165 166 159 154 165 177 182 178 174 188 218 225 218 227 219 236 241 244 248 250 257 266 276 298 324 19 338 309 313 301 298 297 252 250 165 203 302 26 86 29 20 1 360 351 341 348 329 346 351 349 349 347 348 349 344 347 347 344 346 346 348 347 346 351 355 353 354 356 356 2 8 10 10
149 156 163 165 162 164 158 149 158 162 162 169 167 163 165 169 174 172 179 184 191 198 201 208 217 250 228 250 243 249 250 251 261 271 277 273 259 212 236 249 259 275 281 280 266 250 7 305 207 135 145 44 22 291 348 316 315 341 338 338 340 1 351 342 342 347 348 349 346 348 348 344 345 349 352 353 352 353 354 357 355 0 7 8 8
154 163 168 169 162 165 160 154 159 156 165 170 164 167 174 175 177 179 183 192 194 189 194 201 196 202 209 232 210 215 245 256 252 275 277 282 260 236 241 239 234 235 251 259 245 195 208 234 199 123 201 110 28 308 312 298 284 321 333 329 340 344 350 352 345 349 349 349 349 347 347 345 346 348 350 357 355 352 353 358 357 355 360 9 12
152 166 168 174 164 166 159 166 164 160 165 164 155 153 169 176 179 184 191 197 190 194 196 192 196 203 224 216 209 215 176 242 240 249 257 256 246 237 234 237 235 239 244 240 236 195 197 196 209 169 163 160 359 303 283 293 281 299 310 358 347 351 6 357 354 346 351 349 344 344 345 347 347 349 352 358 355 352 352 355 359 357 358 4 8
163 172 175 177 160 161 162 159 158 160 170 164 157 154 160 166 178 183 175 173 187 184 183 187 199 211 220 181 199 168 186 218 225 235 243 257 253 239 215 231 235 227 225 239 240 205 200 201 199 165 184 214 240 291 280 284 292 280 300 198 3 1 343 354 350 346 343 341 344 342 346 343 345 346 354 2 352 350 354 353 358 358 355 357 3
171 171 173 181 176 150 158 153 148 163 167 157 155 156 174 177 179 186 183 173 178 191 191 186 193 214 208 206 194 178 189 203 220 222 228 229 230 227 227 230 229 230 230 223 225 203 192 187 195 192 191 209 241 261 273 288 301 317 306 284 230 295 327 354 349 336 334 351 348 345 341 337 345 359 356 345 350 355 350 353 354 1 356 354 360
167 170 174 191 179 144 154 160 155 155 159 160 152 159 167 180 169 169 175 189 184 186 200 216 223 211 200 197 189 185 189 208 208 217 229 233 240 249 245 249 237 219 212 220 206 195 198 184 191 184 192 218 227 264 277 294 293 301 310 293 243 230 291 338 327 331 332 344 349 347 342 335 336 350 348 349 353 350 352 354 353 353 0 359 351
169 173 180 183 180 153 161 170 154 151 160 172 189 193 176 177 186 183 188 195 201 197 202 211 236 207 190 194 190 186 194 205 209 214 223 230 235 241 249 251 243 234 222 220 200 187 176 177 188 200 193 203 204 216 230 246 256 275 290 312 255 212 209 244 292 314 315 338 347 344 344 340 338 346 349 349 349 352 355 353 353 354 352 359 359
165 171 173 175 186 157 161 162 162 160 159 178 184 201 199 184 197 193 190 195 196 191 186 204 194 184 194 185 173 186 208 218 225 227 230 234 238 243 246 247 246 241 233 214 209 189 164 175 191 208 210 212 217 213 209 219 222 245 270 293 290 228 219 213 230 250 234 295 349 355 344 340 334 339 348 346 352 357 350 354 355 350 351 353 354
167 169 164 169 180 180 165 162 165 170 172 174 189 198 215 206 186 182 183 194 205 208 205 205 189 172 179 191 189 200 216 221 226 232 232 230 229 240 242 249 242 235 234 229 219 189 179 185 187 193 214 232 230 221 223 229 223 220 235 251 269 237 219 212 218 214 181 173 94 14 347 338 334 329 341 340 344 351 350 348 347 352 354 351 354
166 171 168 172 175 187 182 167 156 158 172 176 179 196 206 207 202 193 191 191 187 194 211 217 215 192 184 192 202 207 219 225 233 233 236 239 237 240 240 235 232 225 221 220 212 197 194 186 190 196 209 219 223 223 226 231 231 228 230 241 243 231 215 205 206 172 183 188 188 122 350 332 323 316 321 336 337 340 340 339 348 353 350 343 343
166 173 171 175 179 183 191 182 160 170 172 179 187 189 192 197 197 197 191 198 207 205 203 212 212 215 203 200 200 209 215 217 226 231 233 235 238 241 241 232 222 222 223 214 204 199 200 198 196 199 208 217 217 222 226 224 222 224 226 233 241 215 212 212 206 198 200 200 186 153 154 211 299 306 314 328 340 337 334 334 339 340 340 341 343
166 169 173 174 176 184 194 190 191 186 178 184 190 191 194 199 200 202 210 218 218 220 215 212 207 213 211 211 209 213 217 220 225 229 233 234 232 230 229 230 230 230 226 217 209 206 202 202 203 205 212 217 218 222 226 224 220 217 222 226 220 202 208 205 212 210 207 196 193 185 170 190 261 288 298 309 313 320 336 323 330 335 337 339 340
165 170 173 182 185 185 191 195 199 196 200 190 195 202 201 198 202 205 210 212 214 219 219 222 221 215 209 213 209 209 211 214 222 228 231 232 233 231 222 222 226 231 221 218 220 217 215 210 208 211 215 214 216 221 225 222 222 222 222 222 217 207 206 203 205 215 207 205 205 190 179 176 215 267 283 290 291 302 307 308 313 319 324 335 341
163 172 178 181 187 193 191 192 195 205 209 209 201 206 205 204 205 207 204 207 213 221 225 221 221 221 219 225 231 234 233 234 236 236 237 238 238 235 229 228 231 230 220 224 229 228 219 215 218 221 219 220 220 222 222 222 224 223 224 225 220 208 202 205 208 210 205 207 209 207 200 209 212 235 250 268 274 292 302 300 301 308 310 325 332
174 173 177 182 186 191 191 192 195 199 203 207 209 208 205 206 208 209 210 210 211 211 210 215 221 225 226 225 225 229 232 236 238 238 239 240 237 229 225 223 225 228 229 233 242 241 233 227 225 224 222 224 225 229 226 224 225 225 225 224 218 210 208 204 209 219 213 210 209 206 201 213 223 238 264 268 276 279 277 282 292 294 296 297 301